Location: Unspecified
(0.0000°N, 0.0000°E)
Time: 00:22:53
(UTC+00:00)

O3B FM13 - Visible Passes

Search period start: 16 December 2025 00:00
Search period end: 26 December 2025 00:00
Orbit: 8059 x 8072 km, 0.1° (Epoch: 14 December)

Date Brightness Start Highest point End Pass type
(mag) Time Alt. Az. Time Alt. Az. Time Alt. Az.
16 Dec ? 05:04:33 10° W 05:58:49 90° N 06:52:59 10° E visible
16 Dec ? 17:04:32 10° W 17:58:42 90° SE 18:52:58 10° E visible
16 Dec ? 23:04:29 10° W 00:08:02 74° E 00:53:01 10° E visible
17 Dec ? 05:04:32 10° W 05:58:48 90° SSW 06:52:59 10° E visible
17 Dec ? 17:04:32 10° W 17:58:42 90° NNE 18:52:58 10° E visible
17 Dec ? 23:04:29 10° W 00:08:04 73° E 00:53:01 10° E visible
18 Dec ? 05:04:32 10° W 05:58:48 90° S 06:52:59 10° E visible
18 Dec ? 17:04:32 10° W 17:58:42 90° N 18:52:58 10° E visible
18 Dec ? 23:04:29 10° W 00:08:08 73° E 00:53:01 10° E visible
19 Dec ? 05:04:32 10° W 05:58:48 90° S 06:52:59 10° E visible
19 Dec ? 17:04:32 10° W 17:58:42 90° N 18:52:58 10° E visible
19 Dec ? 23:04:29 10° W 00:08:12 73° E 00:53:01 10° E visible
20 Dec ? 05:04:32 10° W 05:58:48 90° S 06:52:59 10° E visible
20 Dec ? 17:04:32 10° W 17:58:42 90° N 18:52:58 10° E visible
20 Dec ? 23:04:29 10° W 00:08:17 73° E 00:53:01 10° E visible
21 Dec ? 05:04:32 10° W 05:58:48 90° S 06:52:59 10° E visible
21 Dec ? 17:04:32 10° W 17:58:42 90° N 18:52:58 10° E visible
21 Dec ? 23:04:29 10° W 00:08:23 73° E 00:53:01 10° E visible
22 Dec ? 05:04:32 10° W 05:58:48 90° S 06:52:58 10° E visible
22 Dec ? 17:04:31 10° W 17:58:42 90° N 18:52:58 10° E visible
22 Dec ? 23:04:29 10° W 00:08:29 73° E 00:53:01 10° E visible
23 Dec ? 05:04:32 10° W 05:58:48 90° S 06:52:58 10° E visible
23 Dec ? 17:04:31 10° W 17:58:42 90° N 18:52:58 10° E visible
23 Dec ? 23:04:29 10° W 00:08:37 73° E 00:53:01 10° E visible
24 Dec ? 05:04:32 10° W 05:58:48 90° S 06:52:58 10° E visible
24 Dec ? 17:04:31 10° W 17:58:42 90° N 18:52:58 10° E visible
24 Dec ? 23:04:29 10° W 00:08:45 72° E 00:53:01 10° E visible
25 Dec ? 05:04:32 10° W 05:58:48 90° S 06:52:58 10° E visible
25 Dec ? 17:04:31 10° W 17:58:42 90° N 18:52:58 10° E visible
